パンスターズ彗星

C/2014 M1 ( PanSTARRS )

English version
Home page
Updated on May 22, 2017

---------------------------------------------------------------------

・ プロフィール

発見日 2014年6月24日
発見光度 20.8等
発見者 Pan-STARRS 1 telescope (Haleakala)

・ 写真集

・ 軌道要素

Epoch 2015 Sept. 15.0 TT = JDT 2457280.5
T 2015 Aug. 26.51611 TT                                 MPCW
q   5.5766713            (2000.0)            P               Q
z  -0.0003865      Peri.  336.74381     -0.22817387     -0.93347431
 +/-0.0000011      Node   234.67523     -0.83152538     +0.03900378
e   1.0021555      Incl.  160.17559     -0.50646049     +0.35651706
From 83 observations 2014 June 24-2017 Mar. 7, mean residual 0".4.

・ 光度変化

        m1 = 8.0 + 5 logΔ + 10.0 log r

---------------------------------------------------------------------

軌道要素はM.P.E.C. 2017-E59に掲載されたものです。
光度グラフはComet for Windowsで作成したものです。

---------------------------------------------------------------------

Copyright(C) Seiichi Yoshida (comet@aerith.net). All rights reserved.